Flag for U.S.A. Weather past 2 weeks in New Haven, Connecticut, U.S.A.

Now
45 °F

Mostly cloudy.


Feels Like: 41 °F
Forecast: 45 / 54 °F
Wind: 8 mph from Southeast

Location: Tweed-New Haven Airport

Current Time: Apr 19, 2015 at 9:47:30 PM

Latest Report: Apr 19, 2015 at 8:53 PM


Visibility: 10 mi

Pressure: 30.23 "Hg

Humidity: 71%

Dew point: 36 °F

Location of New HavenLocation

Historic Weather in New Haven — Graph

°F

New Haven temperature yesterday

Maximum temperature yesterday: 68 °F (at 2:53 PM)
Minimum temperature yesterday: 42 °F (at 4:53 AM)
Average temperature yesterday: 58 °F

Past Weeks' High & Low Weather Summary

 TemperatureHumidityPressure
High69 °F (Apr 15, 1:53 PM)100% (Apr 10, 5:53 AM)30.50 "Hg (Apr 10, 5:53 AM)
Low28 °F (Apr 5, 1:53 AM)14% (Apr 15, 4:53 PM)29.75 "Hg (Apr 10, 7:53 PM)
Average48 °F66%30.17 "Hg
* Reported Apr 4 8:53 PM — Apr 19 8:53 PM, New Haven, Weather by CustomWeather, © 2015

Note: Actual official high and low records may vary slightly from our data, if they occured in-between our weather recording intervals... More about our weather records

Advertising

New Haven weather history for previous 24 hours

 ConditionsComfort  
Time TempWeatherWind HumidityBarometerVisibility
8:53 PM
Sun, Apr 19
45 °FMostly cloudy.8 mph71%30.23 "Hg10 mi
7:53 PM46 °FMostly cloudy.6 mph71%30.23 "Hg10 mi
6:53 PM47 °FMore clouds than sun.8 mph69%30.22 "Hg10 mi
5:53 PM50 °FMore clouds than sun.10 mph57%30.22 "Hg10 mi
4:53 PM53 °FBroken clouds.14 mph52%30.21 "Hg10 mi
3:53 PM54 °FBroken clouds.12 mph49%30.22 "Hg10 mi
2:53 PM56 °FPartly sunny.10 mph47%30.23 "Hg10 mi
1:53 PM55 °FPartly sunny.10 mph45%30.25 "Hg10 mi
12:53 PM54 °FPartly sunny.14 mph45%30.26 "Hg10 mi
11:53 AM54 °FPartly sunny.12 mph49%30.27 "Hg10 mi
10:53 AM53 °FScattered clouds.10 mph51%30.27 "Hg10 mi
9:53 AM54 °FScattered clouds.7 mph43%30.26 "Hg10 mi
8:53 AM52 °FSunny.14 mph45%30.25 "Hg10 mi
7:53 AM50 °FSunny.13 mph52%30.24 "Hg10 mi
6:53 AM46 °FClear.7 mph61%30.22 "Hg10 mi
5:53 AM47 °FClear.6 mph54%30.19 "Hg10 mi
4:53 AM43 °FClear.No wind56%30.16 "Hg10 mi
3:53 AM49 °FClear.No wind41%30.14 "Hg10 mi
2:53 AM52 °FClear.6 mph37%30.11 "Hg10 mi
1:53 AM55 °FClear.12 mph31%30.10 "Hg10 mi
12:53 AM59 °FClear.7 mph28%30.08 "Hg10 mi
11:53 PM
Sat, Apr 18
62 °FClear.8 mph29%30.04 "Hg10 mi
10:53 PM64 °FClear.15 mph28%30.02 "Hg10 mi
9:53 PM65 °FClear.12 mph26%29.98 "Hg10 mi
Weather by CustomWeather, © 2015

See weather overviewHow to use our weather pages